Regional Weather Roundup
Issued by NWS

Home | Current Version | Previous Version | Graphics & Text | Print | Product List | Glossary On
Versions: 1 2 3 4 5 6 7 8 9 10 11 12 13 14 15 16 17 18 19 20 21 22 23 24 25 26 27
000
ASUS45 KTFX 141810
RWRMT
MONTANA REGIONAL WEATHER ROUNDUP
NATIONAL WEATHER SERVICE GREAT FALLS MT
1100 AM MST THU DEC 14 2017

NOTE: "FAIR" INDICATES FEW OR NO CLOUDS BELOW 12000 FEET WITH NO
SIGNIFICANT WEATHER AND/OR OBSTRUCTIONS TO VISIBILITY.

MTZ001>007-043-141900-
WEST OF THE DIVIDE

CITY           SKY/WX    TMP DP  RH WIND       PRES   REMARKS
KALISPELL      CLOUDY    27  24  89 N3        30.49F
MISSOULA       CLOUDY    29  25  85 CALM      30.49F
BUTTE          FAIR      22  17  81 SE3       30.41F
MULLAN PASS    FAIR      27  23  85 S7        30.34S WCI  19
ANACONDA         N/A     27  19  74 CALM      30.42F
DEER LODGE       N/A     28  23  80 CALM      30.45F
EUREKA           N/A     23  21  93 MISG      30.53F
HAMILTON         N/A     27  25  93 CALM      30.47F VSB 0
LIBBY            N/A     28  23  80 CALM      30.51R
RONAN            N/A     30  27  89 CALM      30.46F
$$

MTZ008-052>055-141900-
SOUTHWEST MONTANA

CITY           SKY/WX    TMP DP  RH WIND       PRES   REMARKS
BOZEMAN        SNOW      23  20  88 CALM      30.45F VSB<1/4
DILLON         FAIR      22  18  85 S7        30.43S WCI  13
W YELLOWSTONE  FAIR      12  10  92 CALM      30.42F
ENNIS          CLOUDY    25  21  86 CALM      30.47S
THREE FORKS      N/A     20  18  92 CALM      30.39F VSB 0
TWIN BRIDGES     N/A     20  14  77 CALM      30.38F
$$

MTZ009-010-012-014-046-048-049-054-141900-
EAST SLOPES AND CENTRAL MONTANA

CITY           SKY/WX    TMP DP  RH WIND       PRES   REMARKS
CUT BANK       FAIR      33  24  69 CALM      30.24F
GREAT FALLS    FAIR      36  23  59 SW17      30.29F WCI  26
HELENA         CLOUDY    23  22  96 CALM      30.43F FOG
CHOTEAU          N/A     36  23  60 S7        30.27F WCI  30
$$

MTZ011-013-016-021-045-047-050-051-141900-
NORTH CENTRAL MONTANA

CITY           SKY/WX    TMP DP  RH WIND       PRES   REMARKS
HAVRE          FAIR      31  25  78 SW20      30.30F WCI  19
LEWISTOWN      FAIR      34  25  69 W8        30.30F WCI  27
N BAR RANCH    FAIR      37  21  52 W9        30.30S WCI  31
CHINOOK          N/A     34  27  75 W9        30.30F WCI  26
$$

MTZ017>020-022>027-061-062-141900-
NORTHEAST MONTANA

CITY           SKY/WX    TMP DP  RH WIND       PRES   REMARKS
GLASGOW        FAIR      35  25  66 W12       30.26F WCI  27
GLENDIVE       CLOUDY    34  25  69 NW16      30.25S WCI  24
JORDAN           N/A     37  23  56 NW16      30.28F WCI  28
SIDNEY         CLOUDY    35  26  69 NW18      30.23F WCI  24
WOLF POINT     FAIR      37  26  64 NW17      30.26F WCI  27
MALTA          SUNNY     34  25  69 W14       30.30F WCI  24
PLENTYWOOD       N/A     34  27  75 NW17      30.18F WCI  23
POPLAR           N/A     36  25  64 NW17      30.25S WCI  25
SCOBEY           N/A     34  21  59 W18       30.17F WCI  23
$$

MTZ028>42-056>058-141900-
SOUTHCENTRAL AND SOUTHEAST MONTANA

CITY           SKY/WX    TMP DP  RH WIND       PRES   REMARKS
BAKER          CLOUDY    32  29  88 NW20      30.23S WCI  20
BILLINGS       FAIR      42  24  49 NW7       30.33F
LIVINGSTON     FAIR      33  25  72 W23       30.35F WCI  21
MILES CITY     CLOUDY    36  24  62 NW14      30.30S WCI  27
BIG TIMBER     SUNNY     36  25  64 W29       30.33F WCI  23
EKALAKA          N/A     29  23  78 W13       30.18S WCI  19
FORSYTH          N/A     36  25  64 W10       30.32F WCI  28
LAUREL           N/A     45  21  39 NW14      30.33F
ROUNDUP          N/A     40  20  45 S10       30.19S
$$

REGIONAL REPORTS...DAKOTAS

CITY           SKY/WX    TMP DP  RH WIND       PRES   REMARKS
WILLISTON      CLOUDY    34  25  69 NW18      30.20S WCI  23
MINOT          CLOUDY    33  24  69 NW18      30.12S WCI  22
DICKINSON      CLOUDY    32  25  75 NW21G28   30.16R WCI  20
BEACH          CLOUDY    30  28  93 NW15      30.24S WCI  19
CROSBY         CLOUDY    32  27  80 W22       30.17S WCI  19
TIOGA          CLOUDY    30  28  93 NW15      30.16F WCI  19
WATFORD CITY   CLOUDY    34  25  69 W14       30.18F WCI  24
BISMARCK       PTSUNNY   34  25  69 N17G28    30.14R WCI  23
GRAND FORKS    CLOUDY    21  17  84 N14       30.08S WCI   8
FARGO          CLOUDY    25  20  81 N13       30.07F WCI  14
BUFFALO SD       N/A     32  28  85 NW23      30.14R WCI  19
RAPID CITY     LGT SNOW  33  24  69 NW30G44   30.19R WCI  19
$$

REGIONAL REPORTS...WYOMING/IDAHO/WASHINGTON

CITY           SKY/WX    TMP DP  RH WIND       PRES   REMARKS
GILLETTE       CLOUDY    29  25  85 NW16      30.27F FOG     WCI  17
SHERIDAN       FAIR      39  21  48 NW22G32   30.31S WCI  29
BUFFALO WY     FAIR      37  16  42 N28G43    30.25F WCI  25
CODY           FAIR      35  17  47 CALM      30.32F
YELLOWSTONE LA   N/A     15  15 100 CALM      30.40F
IDAHO FALLS    FOG       23  22  96 CALM      30.50F VSB 1
SALMON         CLOUDY    29  23  78 CALM      30.53F
BOISE          CLOUDY    26  22  84 S9        30.58R FOG     WCI  17
SPOKANE        CLOUDY    30  27  88 N3        30.52S
$$

REGIONAL REPORTS...ALBERTA

CITY           SKY/WX    TMP DP  RH WIND       PRES   REMARKS
EDMONTON       MOSUNNY   30  23  74 SW10      30.09F WCI  21
CALGARY        PTSUNNY   34  19  55 SW6       30.14F WCI  29
LETHBRIDGE     MOSUNNY   36  25  64 S8        30.21F WCI  29
MEDICINE HAT   PTSUNNY   30  25  80 SW12      30.26F WCI  21
$$

REGIONAL REPORTS...SASKATCHEWAN

CITY           SKY/WX    TMP DP  RH WIND       PRES   REMARKS
SWIFT CURRENT  SUNNY     27  23  86 W15       30.19F WCI  15
REGINA         PTSUNNY   30  27  86 NW16G25   30.13F WCI  19
SASKATOON      PTSUNNY   28  25  86 NW13      30.17S WCI  18
$$




USA.gov is the U.S. government's official web portal to all federal, state and local government web resources and services.